Weather History for Coldstream, VC

Change the Weather History Date:

Friday, November 1, 2013

  Actual Average Record
Temperature  
Mean Temperature 57 °F -  
Max Temperature 76 °F - - ()
Min Temperature 38 °F - - ()
Degree Days  
Heating Degree Days 8    
Growing Degree Days 7 (Base 50)    
Moisture  
Dew Point 48 °F    
Average Humidity 73    
Maximum Humidity 100    
Minimum Humidity 30    
Precipitation  
Precipitation 0.00 in - - ()
Sea Level Pressure  
Sea Level Pressure 30.13 in    
Wind  
Wind Speed 4 mph ()    
Max Wind Speed 14 mph    
Max Gust Speed -    
Visibility 6.2 miles    
Events      
T = Trace of Precipitation, MM = Missing Value Source: Averaged Metar Reports

Daily Weather History Graph

Daily Weather History Graph

Search for Another Location

Airport:

Trip Planner

Search our weather history database for the weather conditions in past years. The results will help you decide how hot, cold, wet, or windy it might be!

Date:

Astronomy

Nov. 01, 2013 Rise Set
Actual Time 6:11 AM AEDT 7:52 PM AEDT
Civil Twilight 5:43 AM AEDT 8:20 PM AEDT
Nautical Twilight 5:10 AM AEDT 8:54 PM AEDT
Astronomical Twilight 4:34 AM AEDT 9:30 PM AEDT
Moon 4:32 AM AEDT (11/1) 5:26 PM AEDT (11/1)
Length of Visible Light 14h 36m
Length of Day
13h 40m
Waning Crescent, 8% of the Moon is Illuminated
Nov 1
Waning Crescent
Nov 3
New
Nov 10
First Quarter
Nov 18
Full
Nov 26
Last Quarter

Hourly Weather History & Observations

Time (AEDT) Temp. Windchill Dew Point Humidity Pressure Visibility Wind Dir Wind Speed Gust Speed Precip Events Conditions
12:00 AM 46 °F - 43 °F 84% 30.25 in - Calm Calm - -  
12:00 AM 51.8 °F - 44.6 °F 76% 30.24 in 6.2 mi SSE 4.6 mph - N/A   Unknown
1:00 AM 50.0 °F - 46.4 °F 87% 30.21 in 6.2 mi ESE 2.3 mph - N/A   Unknown
2:00 AM 48.2 °F - 44.6 °F 87% 30.18 in 6.2 mi WNW 4.6 mph - N/A   Unknown
3:00 AM 41 °F - 40 °F 93% 30.18 in - Calm Calm - -  
3:00 AM 46.4 °F 42.9 °F 44.6 °F 93% 30.18 in 6.2 mi NW 6.9 mph - N/A   Unknown
4:00 AM 44.6 °F 41.4 °F 42.8 °F 93% 30.15 in 6.2 mi WNW 5.8 mph - N/A   Unknown
5:00 AM 44.6 °F 41.4 °F 42.8 °F 93% 30.15 in 6.2 mi WNW 5.8 mph - N/A   Unknown
6:00 AM 40 °F - 40 °F 100% 30.18 in - Calm Calm - -  
6:00 AM 44.6 °F 40.7 °F 42.8 °F 93% 30.15 in 6.2 mi NNW 6.9 mph - N/A   Unknown
7:00 AM 46.4 °F 43.5 °F 44.6 °F 93% 30.18 in 6.2 mi NW 5.8 mph - N/A   Unknown
8:00 AM 51.8 °F - 46.4 °F 82% 30.18 in 6.2 mi North 3.5 mph - N/A   Unknown
9:00 AM 51 °F - 48 °F 87% 30.18 in - Calm Calm - -  
9:00 AM 57.2 °F - 46.4 °F 67% 30.18 in 6.2 mi ESE 4.6 mph - N/A   Unknown
10:00 AM 60.8 °F - 48.2 °F 63% 30.15 in 6.2 mi ENE 4.6 mph - N/A   Unknown
11:00 AM 62.6 °F - 48.2 °F 59% 30.15 in 6.2 mi SSE 3.5 mph - N/A   Unknown
12:00 PM 66 °F - 51 °F 47% 30.15 in - WSW 5.8 mph - -  
12:00 PM 66.2 °F - 48.2 °F 52% 30.15 in 6.2 mi SE 4.6 mph - N/A   Unknown
1:00 PM 66.2 °F - 50.0 °F 56% 30.12 in 6.2 mi South 10.4 mph - N/A   Unknown
2:00 PM 69.8 °F - 51.8 °F 53% 30.09 in 6.2 mi South 6.9 mph - N/A   Unknown
3:00 PM 71.6 °F - 50.0 °F 46% 30.06 in 6.2 mi SE 6.9 mph - N/A   Unknown
4:00 PM 68.0 °F - 53.6 °F 60% 30.06 in 6.2 mi South 13.8 mph - N/A   Unknown
5:00 PM 66.2 °F - 51.8 °F 60% 30.06 in 6.2 mi South 11.5 mph - N/A   Unknown
6:00 PM 76 °F - 50 °F 30% 30.03 in - WSW 9.2 mph - -  
6:00 PM 66.2 °F - 46.4 °F 49% 30.04 in 6.2 mi South 10.4 mph - N/A   Unknown
7:00 PM 64.4 °F - 50.0 °F 59% 30.06 in 6.2 mi South 8.1 mph - N/A   Unknown
8:00 PM 60.8 °F - 53.6 °F 77% 30.06 in 6.2 mi SSW 9.2 mph - N/A   Unknown
9:00 PM 58 °F - 52 °F 73% 30.07 in - SSE 2.3 mph - -  
9:00 PM 59.0 °F - 51.8 °F 77% 30.09 in 6.2 mi SW 6.9 mph - N/A   Unknown
10:00 PM 55.4 °F - 50.0 °F 82% 30.09 in 6.2 mi SW 6.9 mph - N/A   Unknown
11:00 PM 55.4 °F - 51.8 °F 88% 30.06 in 6.2 mi West 5.8 mph - N/A   Unknown